User: anonymous
Location: Deep South Regional Star Gaze
(30.9929°N, 90.9586°W)
Time: 01:23:50
(UTC-05:00)
Language:

H-2A R/B - Orbit

View from above orbital plane
View from above orbital plane
View from above satellite
View from above satellite

Ground track
Ground track

The orbit data is extracted from the following two-line orbital elements,

1 26899U 01038B   14270.92010372  .00001764  00000-0  70935-3 0   530
2 26899 028.0337 106.3019 7147226 254.5235 042.5629 02.43858302112034
Epoch (UTC): 27 September 2014 22:04:56
Eccentricity: 0.7147226
inclination: 28.0337°
perigee height: 273 km
apogee height: 33601 km
right ascension of ascending node: 106.3019°
argument of perigee: 254.5235°
revolutions per day: 2.43858302
mean anomaly at epoch: 42.5629°
orbit number at epoch: 11203

The dashed part of the orbit path shows where the satellite is in the earth's shadow,  

DLR